アトラス彗星

C/2023 F3 ( ATLAS )

English version
Home page
Updated on September 3, 2024

---------------------------------------------------------------------

・ プロフィール

発見日 2023年3月28日
発見光度 18.8等
発見者 Asteroid Terrestrial-Impact Last Alert System (ATLAS) search program

・ 写真集

・ 軌道要素

Epoch 2024 Oct. 17.0 TT = JDT 2460600.5
T 2025 Feb. 2.66067 TT                                  Rudenko
q   5.1907702            (2000.0)            P               Q
z  -0.0007813      Peri.  265.53196     -0.75301302     -0.39300332
 +/-0.0000014      Node   109.45990     -0.09794408     +0.86005442
e   1.0040556      Incl.  145.96329     -0.65067530     +0.32535333
>From 325 observations 2023 Mar. 28-2024 Aug. 31, mean residual 0".5.

・ 星図

・ 光度変化

        m1 = 5.5 + 5 logΔ + 10.0 log r

---------------------------------------------------------------------

軌道要素はM.P.E.C. 2024-R10に掲載されたものです。
星図はステラナビゲータ Ver.11 (アストロアーツ) で作成したものです。
光度グラフはComet for Windowsで作成したものです。

---------------------------------------------------------------------

Copyright(C) Seiichi Yoshida (comet@aerith.net). All rights reserved.